Location: Dieppe
(49.9230°N, 1.0775°E)
Time: 17:08:32
(UTC+01:00)

ISS - Visible Passes

Search period start: 20 March 2019 00:00
Search period end: 30 March 2019 00:00
Orbit: 406 x 411 km, 51.6° (Epoch: 21 March)

Date Brightness Start Highest point End Pass type
(mag) Time Alt. Az. Time Alt. Az. Time Alt. Az.
21 Mar -1.7 20:27:44 10° S 20:28:53 14° SSE 20:28:53 14° SSE visible
22 Mar -2.4 21:11:42 10° SW 21:13:32 27° SSW 21:13:32 27° SSW visible
23 Mar -2.8 20:21:01 10° SSW 20:23:56 29° SSE 20:25:12 22° ESE visible
23 Mar -1.3 21:56:59 10° WSW 21:57:57 18° WSW 21:57:57 18° WSW visible
24 Mar -4.0 21:05:56 10° WSW 21:09:14 76° SSE 21:09:25 72° ESE visible
25 Mar -3.6 20:14:58 10° SW 20:18:13 53° SSE 20:20:43 15° E visible
25 Mar -2.1 21:51:29 10° W 21:53:28 32° WNW 21:53:28 32° WNW visible
26 Mar -3.7 21:00:21 10° W 21:03:39 75° NNW 21:04:38 41° ENE visible
26 Mar -0.6 22:37:05 10° WNW 22:37:23 12° WNW 22:37:23 12° WNW visible
27 Mar -3.8 20:09:14 10° WSW 20:12:32 87° S 20:15:43 11° ENE visible
27 Mar -2.7 21:45:57 10° W 21:48:28 45° NW 21:48:28 45° NW visible
28 Mar -3.5 20:54:47 10° W 20:58:04 63° N 20:59:28 31° ENE visible
28 Mar -0.9 22:31:27 10° WNW 22:32:12 16° WNW 22:32:12 16° WNW visible
29 Mar -3.6 20:03:36 10° W 20:06:55 69° N 20:10:12 10° ENE visible
29 Mar -3.3 21:40:20 10° WNW 21:43:08 58° NW 21:43:08 58° NW visible
